sat.trackr.live / text

‹ back to catalog

STARLINK-11178 [DTC]

NORAD 62465 · 2024-254D

PAYLOAD ACTIVE UNKNOWN

§ Identity

Operator
Country
US
Launch date
2024-12-31
Launch site
AFETR
Launch vehicle
Mass (kg)
RCS (m²)

Purposes: comms

External: N2YO · Heavens-Above · Gunter

§ Orbital elements

Epoch: 2026-05-25T05:06:17.960832Z

Period
91.67 min
Inclination
42.9975°
Eccentricity
0.0001259
Mean motion
15.70872224 rev/d
Perigee alt
355.6 km
Apogee alt
357.3 km
Semi-major
6,734.5 km
B*
1.4735e-3
RAAN
121.9628°
Arg perigee
182.0726°
Mean anomaly
178.0136°
Rev number
8,127

§ Raw data

STARLINK-11178 [DTC]1 62465U 24254D   26145.21270788  .00193344  00000+0  14735-2 0  99982 62465  42.9975 121.9628 0001259 182.0726 178.0136 15.70872224 81275

JSON: /api/v1/satellites/62465 · /tle

For live sub-satellite position, see the globe view (requires WebGL).

§ Visibility from observer

Set your observer location to see the next 7 days of passes ≥ 10°. The values pass through the URL so the page stays shareable.

No JS? Fill the form by hand. The geolocation button needs JavaScript.